Weather in Pikovo

Russia / Lipetsk Oblast     53°17′51″N   39°50′27″E
temp.,
°C
wind,
m/s
gust,
m/s
humid.,
%
clouds,
%
prec.,
mm/h
press.,
hPa
HPBL,
m
4 december, sat
sat400:00+6ssw81690100 1.4 1001963
03:00+1wnw51197100 5.3 1005568
06:000w6108798 0.2 1006651
09:00−2wsw6128555 0.2 1009540
12:00−1w6118359 0.0 1010705
15:00−1w71074100 0.0 1012898
18:00−2wsw510745 0.0 1013530
21:00−2w48825 0.0 1014369
5 december, sun
sun500:00−2wsw37875 0.0 1015275
03:00−2wsw36885 0.0 1016201
06:00−3sw238979 0.0 1016108
09:00−2sw2487100 0.0 1018184
12:00−1ssw3476100 0.0 1018286
15:00−1s2377100 0.0 1018147
18:00−2sse347964 0.0 1018114
21:00−2sse2580100 0.0 1019121
6 december, mon
mon600:00−2sse2477100 0.0 1019137
03:00−2se2574100 0.0 1020167
06:00−2se3673100 0.0 1019184
09:00−2ese3772100 0.0 1020260
12:00−1ese486576 0.0 1020372
15:00−1ese366882 0.0 1020288
18:00−2ese368596 0.0 1021296
21:00−2ese4894100 0.1 1020319
7 december, tue
tue700:00−2ese4993100 0.1 1020334
03:00−1se51193100 0.1 1018413
06:00−1ese61398100 1.4 1016434
09:00+1se71597100 3.8 1014532
12:00+2sse61398100 0.3 1013405
15:00+3sse51399100 1.7 1012333
18:00+3s51399100 0.8 1013299
21:00+3s51499100 2.3 1012270
8 december, wed
wed800:00+3s41291100 0.0 1013262
03:00+2sse51292100 0.0 1013257
06:00+2sse41193100 0.0 1013235
09:00+2sse3993100 0.0 1014217
12:00+3sse3891100 0.0 1014246
15:00+2ese3391100 0.0 101353
18:00+1e3392100 0.0 101439
21:00+1ene3493100 0.0 1014100